1st Responders/1st Detectors/Storm Spotters Weather Summary for Clay County, KY

Forecast Maps


Reg. NEXRAD Animation


National Fire Danger: Day 1 & 2 Map

Current NWS Watch/Warnings

SPC Convective Day 1 Outlook


Day 2 Outlook

(Click images to enlarge|Page will refresh every 5 minutes)
UK Ag. Weather Center Desktop Severe Weather Service[HERE]
Clay County, KY Hazardous Weather Outlook Webcast
(9 AM to 9 PM Mon-Fri)
[Fast]
[Dial-up]


UKAWC 1st Detectors/1st Responders Precision Weather Forecast For CLAY County, Kentucky
(based on the NWS County Digital Forecast)

ISSUED AT 19:00 UTC ON TUESDAY OCT 22 2019
DAY TUESDAY
EDT 3HR 4P 5P 6P 7P
MAX/MIN -- -- -- 63°
TEMP 63° 61° 59° 56°
SKY COVER 4% 4% 4% 4%
Clouds
DEW PT 41° 41° 41° 40°
RH 44% 47% 51% 56%
POP 12HR -- -- -- --
RAIN/SNOW (liq.equ) -- -- -- --
SNOWFALL -- -- -- --
WIND SPEED(MPH) 10 10 9 7
WIND Gust(MPH) 22 18 16 14
WIND DIR W W W W
DEW -- -- -- --
HeatIndex 63 61 59 56
Rain Showers -- -- -- --
WIND CHILL -- -- -- --
SPRAY COND
DRY COND
LIVESTOCK COLDSTRESS
LIVESTOCK HEATSTRESS 61.71 60.36 58.95 56.68



DAY WEDNESDAY THURSDAY FRIDAY SATURDAY SUNDAY MONDAY
EDT 6HR 8P 9P 10P 11P MIDN 1A 2A 3A 4A 5A 6A 7A 8A 9A 10A 11A NOON 1P 2P 3P 4P 5P 6P 7P 8P 9P 10P 11P MIDN 1A 2A 3A 5A 8A 11A 2P 5P 8P 2A 8A 2P 8P 2A 8A 2P 8P 2A 8A 2P 8P 2A 8A 2P 8P
MAX/MIN -- -- -- -- -- -- -- -- -- -- -- -- 40° -- -- -- -- -- -- -- -- -- -- 63° -- -- -- -- -- -- -- -- -- 40° -- -- 70° -- -- 43° 63° -- -- 43° 63° -- -- 43° 67° -- -- 47° 70° --
TEMP 52° 50° 49° 49° 47° 47° 45° 45° 43° 43° 41° 40° 41° 45° 49° 52° 56° 58° 61° 63° 63° 63° 61° 58° 54° 49° 47° 47° 45° 45° 43° 43° 41° 40° 56° 67° 70° 56° 47° 45° 61° 54° 47° 43° 61° 50° 45° 45° 63° 56° 49° 47° 67° 58°
SKY COVER 4% 4% 19% 24% 17% 8% 8% 5% 3% 2% 1% 0% 0% 0% 0% 0% 0% 0% 0% 0% 0% 0% 0% 0% 0% 0% 0% 0% 0% 0% 0% 0% 1% 1% 6% 7% 12% 17% 64% 86% 92% 86% 81% 68% 47% 45% 46% 46% 47% 30% 33% 59% 43% 37%
Clouds
DEW PT 40° 40° 40° 40° 40° 40° 38° 38° 38° 36° 36° 36° 34° 36° 36° 36° 36° 34° 34° 34° 32° 34° 34° 36° 38° 38° 38° 38° 38° 38° 38° 36° 36° 34° 40° 40° 40° 43° 41° 41° 45° 47° 47° 43° 43° 45° 45° 45° 50° 50° 49° 47° 52° 52°
RH 63% 68% 71% 73% 73% 76% 76% 79% 78% 78% 79% 81% 76% 70% 60% 52% 45% 40% 36% 33% 31% 33% 37% 43% 54% 65% 71% 73% 76% 79% 79% 76% 79% 78% 55% 35% 34% 59% 79% 88% 55% 79% 99% 96% 53% 82% 100% 100% 62% 83% 100% 95% 59% 80%
POP 12HR 27% -- -- -- -- -- -- -- -- -- -- -- 2% -- -- -- -- -- -- -- -- -- -- -- 1% -- -- -- -- -- -- -- -- 1% -- -- -- 1% -- 11% -- 33% -- 33% -- 24% -- 31% -- 31% -- 26% -- 22%
RAIN/SNOW (liq.equ) 0.00in -- -- -- -- -- 0.00in -- -- -- -- -- 0.00in -- -- -- -- -- 0.00in -- -- -- -- -- 0.00in -- -- -- -- -- 0.00in -- -- 0.00in -- 0.00in -- 0.00in 0.00in 0.00in -- -- -- -- -- -- -- -- -- -- -- -- -- --
SNOWFALL 0in -- -- -- -- -- 0in -- -- -- -- -- 0in -- -- -- -- -- 0in -- -- -- -- -- 0in -- -- -- -- -- 0in -- -- 0in -- 0in -- 0in 0in 0in -- -- -- -- -- -- -- -- -- -- -- -- -- --
WIND SPEED(MPH) 7 6 6 6 7 7 7 7 6 5 5 5 5 5 6 6 7 7 7 7 6 5 5 2 1 1 1 1 1 1 1 1 1 1 1 1 1 0 0 0 1 1 1 1 2 1 1 2 6 1 1 1 2 1
WIND DIR W W W W W W W W W W SW SW SW SW SW W W W W W SW SW SW S S S S S S S S S S S S SW SW NE S SW N NE N E NE E S S S S S S W N
HeatIndex 52 50 49 49 47 47 45 41 40 40 39 38 39 42 49 52 56 58 61 63 63 63 61 58 54 49 47 47 45 45 43 43 41 40 56 67 70 56 47 45 61 54 47 43 61 50 45 43 63 56 49 47 67 58
Rain Showers -- -- -- -- -- -- -- -- -- -- -- -- -- -- -- -- -- -- -- -- -- -- -- -- -- -- -- -- -- -- -- -- -- -- -- -- -- -- -- Slight Chance Chance Chance Chance Slight Chance Slight Chance Chance Chance Chance Chance Slight Chance Slight Chance Slight Chance Slight Chance --
WIND CHILL -- -- -- -- -- -- 41° 41° 39° 40° 38° 37° 38° 43° -- -- -- -- -- -- -- -- -- -- -- -- -- -- -- -- -- -- -- -- -- -- -- -- -- -- -- -- -- -- -- -- -- -- -- -- -- -- -- --
SPRAY COND
DRY COND
LIVESTOCK COLDSTRESS
LIVESTOCK HEATSTRESS 53.38 51.55 50.56 50.46 48.75 48.56 46.82 46.59 44.91 44.91 43.06 41.96 43.35 47.28 51.16 53.80 56.85 58.26 60.23 61.45 61.41 61.45 60.24 58.25 55.21 50.89 48.88 48.75 46.82 46.59 44.82 45.09 43.06 42.27 56.69 64.07 65.93 56.63 48.36 45.91 60.46 54.55 47.06 43.35 60.43 50.87 45.00 45.00 62.12 56.26 49.00 47.32 65.15 58.09

Click on individual weather variable above in left-hand column (ie., TEMP, RH, QPF 12HR) to view state forecast maps






NWS 48 Hr. Forecast Maps,

Regional Hourly Observations For CLAY County, Kentucky
Issued at 300 PM EDT TUE OCT 22 2019
SOUTHEAST KENTUCKY
  
CITY           SKY/WX    TMP DP  RH WIND       PRES   REMARKS
JACKSON        FAIR      62  41  46 SW8G28    29.85F                  
LONDON         FAIR      63  42  46 W15G30    29.89S                  
SOMERSET       FAIR      63  36  36 SW17      29.92F                  
MIDDLESBORO    FAIR      66  40  37 W15G21    29.89S                  
MONTICELLO     FAIR      64  42  44 MISG      29.93F                  


Current NOWCAST not available:
Nowcasts are not issued routinely during fair weather. Only when
precipitation or other significant weather is occuring in this county will these
forecasts be issued. Currently, there is no short term forecast in effect.


Fire Weather Forecast For CLAY County, KY
Provided by the National Weather Service:

Issued at: Tue Oct 22 15:05:01 EDT 2019

557 AM EDT Tue Oct 22 2019

                      Today        Tonight      Wed          

Cloud Cover           MClear       Clear        Clear        
Chance precip (%)     0            0            0            
Precip type           None         None         None         
Temp (24H TREND)      61-64 (-10)  33-42 (-13)  61-64        
Rh % (24H TREND)      41-44 (-10)  70-100 (+1)  29-32        
20ftwnd-AM(mph)       SW 5-9 G22                SW 3-7 G15   
20ftwnd-PM(mph)       W 8-12 G24   W 3-7 G14    SW 3-7 G15   
Precip duration                                              
Precip begin                                                 
Precip end                                                   
Precip amount         0.00         0.00         0.00         
LAL                   1            1            1            
Haines Index (MID)    3                         3            
Mixing hgt(ft-AGL)    5400                      4400         
Transport wnd (mph)   W 23                      W 12         
Vent rate (kt-ft)     108631                    43748        
ADI Early             70 Good      5 Very Poor  56 Gen Good  
ADI Late              74 Good      5 Very Poor  44 Gen Good  
Max LVORI Early       5            4            5            
Max LVORI Late        3            5            2            

REMARKS...RANGES OF MIN T EXCEEDING 8 DEGREES & RANGES OF MAX RH        
EXCEEDING 10% INDICATE THE LIKELIHOOD OF THERMAL BELTS. ADI IS        
ATMOSPHERIC DISPERSION INDEX BY LAVDAS. DISPERSION INDEX IS        
MAGNITUDE OF VENT RATE DIVIDED BY 1000.


SPC's Fire Weather Web Tool (Excellent!), SPC's Fire Weather Outlooks, NWS Fire Weather WEB, Fire Danger Class Map,
Keetch-Byram Drought Index, ROMAN Web, Haines Index ,
WFAS's 10-hr Dead Fuel Moist., WFAS's 100-hr Dead Fuel Moist., Probablity of Ignition, Visual blackness Map, Palmer Drought Index, HPC's Rainfall Forecast Maps


Hazardous Weather Outlook For CLAY County, Kentucky
339 AM EDT Tue Oct 22 2019

 DAY ONE  Today and Tonight.

Areas of frost are possible late tonight into early Wednesday 
morning, particularly in valley locations along and west of 
Interstate 75.

 DAYS TWO THROUGH SEVEN  Wednesday through Monday.

No hazardous weather is expected at this time.

 SPOTTER INFORMATION STATEMENT  

Spotter activation is not anticipated.

Latest CLAY County, Kentucky Watches, Warnings and Advisories.
Additional Drought Info.: UKAWC Drought Page, Kentucky Drought Watch


7-Day Forecast For CLAY County, KY

REST OF TODAY
Sunny. Highs in the mid 60s. Southwest winds around 10 mph.

TONIGHT
Clear. Patchy frost near dawn. Lows in the upper 30s. Light winds.

WEDNESDAY
Sunny. Highs in the mid 60s. Light winds.

WEDNESDAY NIGHT
Clear. Lows in the mid 30s in the valleys and in the lower 40s on the ridges. Light winds.

THURSDAY
Sunny. Highs in the lower 70s. Light winds.

THURSDAY NIGHT
Partly cloudy. Lows in the lower 40s.

FRIDAY
Cloudy with a 30 percent chance of showers. Highs in the mid 60s.

FRIDAY NIGHT
Mostly cloudy with a 30 percent chance of rain showers. Lows in the lower 40s.

SATURDAY
Partly cloudy with a 20 percent chance of showers. Highs in the lower 60s.

SATURDAY NIGHT
Partly cloudy with a 30 percent chance of showers. Lows in the lower 40s.

SUNDAY
Partly cloudy with a 30 percent chance of showers. Highs in the upper 60s.

SUNDAY NIGHT
Partly cloudy with a 30 percent chance of showers. Lows in the mid 40s.

MONDAY
Partly cloudy with a 20 percent chance of showers. Highs around 70.

Ag Weather Center, Department of Biosystems & Agricultural Engineering, University of Kentucky